Powrót do katalogu

HJS-6D

AktywnyNaukaVLEO
NORAD 63431·PAYLOAD·🇨🇳 China

Wystrzelony Apr 1, 2025 z Jiuquan Satellite Launch Center

Loading…

Następne Przeloty (najbliższe 24 godziny)

TLE

ŚwieżeSource: Space-Track

Epoka: Sep 14, 2026, 14:45 UTC

1 63431U 25067D   26257.61500825  .00010453  00000-0  50354-3 0  9999
2 63431  54.9974 356.8623 0004510 165.0117 195.1037 15.19308248 81524

Śledź HJS-6D w czasie rzeczywistym z AllMySat

Download on the App Store